This demonstration page uses our WeatherBlox Daily Observations layout. Learn more.

Left ArrowRight Arrow

Hourly Observations for April 15, 2021

Temp ( °F °C ) Dew Point ( °F °C ) Humidity (%) Winds ( mph kmh ) Pressure ( in mb ) Visibility ( mi km ) Precip ( " mm )
12:53 am 00:53 Clear 53 11.7 35 1.7 51 51 N 5 7 29.94 1014 10 16 0.00 0.00
1:53 am 01:53 Clear 49 9.4 36 2.2 61 61 N 6 9 29.96 1015 10 16 0.00 0.00
2:53 am 02:53 Clear 47 8.3 36 2.2 66 66 N 7 11 29.96 1015 10 16 0.00 0.00
3:53 am 03:53 Clear 48 8.9 36 2.2 63 63 N 3 6 29.97 1015 10 16 0.00 0.00
4:53 am 04:53 Clear 45 7.2 36 2.2 71 71 NNE 3 6 29.98 1015 10 16 0.00 0.00
5:53 am 05:53 Clear 43 6.1 36 2.2 76 76 N 5 7 29.99 1016 10 16 0.00 0.00
6:53 am 06:53 Sunny 44 6.7 36 2.2 73 73 Calm 30.01 1016 10 16 0.00 0.00
7:53 am 07:53 Sunny 50 10 38 3.3 63 63 Calm 30.02 1017 10 16 0.00 0.00
8:53 am 08:53 Sunny 56 13.3 37 2.8 49 49 Calm 30.03 1017 10 16 0.00 0.00
9:53 am 09:53 Sunny 61 16.1 37 2.8 41 41 Calm 30.03 1017 10 16 0.00 0.00
10:53 am 10:53 Sunny 64 17.8 39 3.9 40 40 SSW 5 7 30.02 1017 10 16 0.00 0.00
11:53 am 11:53 Sunny 66 18.9 38 3.3 36 36 Calm 30.01 1016 10 16 0.00 0.00
12:53 pm 12:53 Sunny 69 20.6 39 3.9 33 33 N 5 7 29.99 1016 10 16 0.00 0.00
1:53 pm 13:53 Sunny 71 21.7 36 2.2 28 28 VRB 7 11 29.97 1015 10 16 0.00 0.00
2:53 pm 14:53 Sunny 72 22.2 34 1.1 25 25 Calm 29.96 1014 10 16 0.00 0.00
3:53 pm 15:53 Sunny 74 23.3 36 2.2 25 25 S 10 17 29.93 1014 10 16 0.00 0.00
4:53 pm 16:53 Sunny 74 23.3 31 -0.6 20 20 SSE 5 7 29.93 1013 10 16 0.00 0.00
5:53 pm 17:53 Sunny 74 23.3 29 -1.7 19 19 Calm 29.92 1013 10 16 0.00 0.00
6:53 pm 18:53 Sunny 72 22.2 32 0 23 23 S 6 9 29.93 1013 10 16 0.00 0.00
7:53 pm 19:53 Clear 68 20 34 1.1 28 28 SSW 5 7 29.94 1014 10 16 0.00 0.00
8:53 pm 20:53 Clear 64 17.8 39 3.9 40 40 Calm 29.95 1014 10 16 0.00 0.00
9:53 pm 21:53 Clear 58 14.4 39 3.9 50 50 Calm 29.97 1015 10 16 0.00 0.00
10:53 pm 22:53 Clear 58 14.4 37 2.8 46 46 NNE 3 6 29.98 1015 10 16 0.00 0.00
11:53 pm 23:53 Clear 53 11.7 38 3.3 57 57 Calm 29.99 1016 10 16 0.00 0.00

Powered by AerisWeather